Location: Unspecified
(0.0000°N, 0.0000°E)
Time: 19:33:27
(UTC+00:00)

Vanguard 1 - Pass Details

Date: 18 April 2026
Orbit: 654 x 3817 km, 34.2° (Epoch: 18 May)

Event Time Altitude Azimuth Distance (km) Brightness Sun altitude
Rises 03:46:11 0° 318° (NW) 7,319 14.3 -32.6°
Reaches altitude 10° 03:54:14 10° 334° (NNW) 5,690 13.8 -30.7°
Maximum altitude 04:03:54 18° 12° (NNE) 4,079 13.4 -28.3°
Drops below altitude 10° 04:10:49 10° 52° (NE) 3,934 13.9 -26.6°
Sets 04:14:46 0° 71° (ENE) 4,437 14.8 -25.7°
